Location: STAR School
(35.3054°N, 111.2976°W)
Time: 15:07:34
(UTC-07:00)

KKS-1 - Visible Passes

Search period start: 21 April 2019 00:00
Search period end: 01 May 2019 00:00
Orbit: 637 x 651 km, 98.4° (Epoch: 20 April)

Date Brightness Start Highest point End Pass type
(mag) Time Alt. Az. Time Alt. Az. Time Alt. Az.
21 Apr ? 19:55:27 10° N 19:59:31 36° WNW 20:03:34 10° SW visible
22 Apr ? 05:16:36 10° E 05:18:00 11° ENE 05:19:24 10° NE visible
22 Apr ? 20:20:42 10° NNW 20:23:54 20° WNW 20:27:07 10° WSW visible
23 Apr ? 20:47:07 10° NW 20:48:13 11° WNW 20:49:18 10° WNW visible
24 Apr ? 19:32:23 10° N 19:36:49 67° WNW 19:41:14 10° SSW visible
25 Apr ? 19:57:14 10° N 20:01:17 35° WNW 20:05:20 10° SW visible
26 Apr ? 20:22:30 10° NNW 20:25:41 19° WNW 20:28:51 10° WSW visible
27 Apr ? 20:49:05 10° NW 20:49:59 11° WNW 20:50:52 10° WNW visible
28 Apr ? 19:34:09 10° N 19:38:35 65° WNW 19:43:00 10° SSW visible
29 Apr ? 19:59:01 10° N 20:03:03 34° WNW 20:07:04 10° SW visible
30 Apr ? 20:24:19 10° NNW 20:27:26 19° WNW 20:30:34 10° WSW visible
